This is the latest recevied weather packets stored in our database for station/object W3EJE-13. If no packets are shown the sender has not sent any weather packets the latest 1 day(s).
| Time | Temp. | Humidity | Pressure | Rain* | Wind** | Luminosity | Snow |
|---|---|---|---|---|---|---|---|
| 1778005797 | 23.89° C | 48% | 1011.6 hPa | 0 mm | 2.24 m/s, 187° | 675 W/m² | - |
| 1778005494 | 23.89° C | 47% | 1011.5 hPa | 0 mm | 0.89 m/s, 203° | 739 W/m² | - |
| 1778005190 | 23.89° C | 49% | 1011.2 hPa | 0 mm | 3.58 m/s, 272° | 625 W/m² | - |
| 1778004888 | 23.89° C | 49% | 1011.5 hPa | 0 mm | 3.58 m/s, 271° | 628 W/m² | - |
| 1778004585 | 23.89° C | 48% | 1011.2 hPa | 0 mm | 1.34 m/s, 206° | 584 W/m² | - |
| 1778004281 | 23.33° C | 48% | 1011.5 hPa | 0 mm | 1.34 m/s, 338° | 498 W/m² | - |
| 1778003978 | 23.33° C | 52% | 1011.4 hPa | 0 mm | 4.02 m/s, 342° | 614 W/m² | - |
| 1778003674 | 23.33° C | 51% | 1011.5 hPa | 0 mm | 1.79 m/s, 229° | 464 W/m² | - |
| 1778003370 | 23.33° C | 52% | 1011.5 hPa | 0 mm | 2.24 m/s, 267° | 636 W/m² | - |
| 1778003068 | 23.33° C | 50% | 1011.5 hPa | 0 mm | 1.79 m/s, 294° | 691 W/m² | - |
| 1778002764 | 23.33° C | 49% | 1011.5 hPa | 0 mm | 1.79 m/s, 199° | 670 W/m² | - |
| 1778002460 | 23.33° C | 48% | 1011.6 hPa | 0 mm | 1.79 m/s, 32° | 678 W/m² | - |
| 1778002158 | 22.78° C | 49% | 1011.7 hPa | 0 mm | 2.68 m/s, 350° | 672 W/m² | - |
| 1778001856 | 22.78° C | 51% | 1011.7 hPa | 0 mm | 1.79 m/s, 37° | 694 W/m² | - |
| 1778001555 | 22.78° C | 50% | 1011.8 hPa | 0 mm | 2.68 m/s, 304° | 642 W/m² | - |
| 1778001252 | 22.78° C | 50% | 1011.9 hPa | 0 mm | 1.34 m/s, 96° | 614 W/m² | - |
| 1778000948 | 22.78° C | 50% | 1011.9 hPa | 0 mm | 2.68 m/s, 235° | 640 W/m² | - |
| 1778000645 | 22.78° C | 49% | 1012 hPa | 0 mm | 1.79 m/s, 277° | 636 W/m² | - |
| 1778000340 | 22.22° C | 53% | 1012.1 hPa | 0 mm | 4.02 m/s, 236° | 594 W/m² | - |
| 1778000036 | 22.78° C | 52% | 1012.3 hPa | 0 mm | 2.24 m/s, 41° | 609 W/m² | - |
| 1777999732 | 22.78° C | 50% | 1012.3 hPa | 0 mm | 1.34 m/s, 354° | 684 W/m² | - |
| 1777999429 | 22.78° C | 51% | 1012 hPa | 0 mm | 2.68 m/s, 237° | 697 W/m² | - |
| 1777999127 | 22.22° C | 53% | 1012.1 hPa | 0 mm | 2.24 m/s, 18° | 685 W/m² | - |
| 1777998826 | 22.22° C | 52% | 1012.4 hPa | 0 mm | 3.13 m/s, 249° | 725 W/m² | - |
| 1777998524 | 22.22° C | 54% | 1012.3 hPa | 0 mm | 2.24 m/s, 257° | 474 W/m² | - |
* Rain latest hour (hover to see other rain measurements)
** Current wind speed in m/s (hover to see current wind gust speed)